YUZGU UA (53322 NORAD) Tracking and Keplerian Element Data

This shows tracking and keplerian element data for the satellite.

Feedback or suggestion? Click here.




ElementValue
Catalog53322
NameYUZGU UA
Epoch Orbit1048
Epoch Day270.07700578
Epoch Year2022
RAAN190.6316
Inclination51.6401
Eccentricity0.0001999
Argument of Perigee201.1629
Mean Anonmoly158.928
Mean Motion15.55461021
Decay Rate0.00057581
L11 53322U 98067UA 22270.07700578 .00057581 00000+0 82933-3 0 9995
L22 53322 51.6401 190.6316 0001999 201.1629 158.9280 15.55461021 10485

Live tracking and technical data element details for YUZGU UA (NORAD 53322). YUZGU UA can be tracked NOW for your location showing map with azimuth and elevation plus other details from your city location.

Track the satellite on the map from your city or location and see movement details for azimuth, elevation, latitude, longitude, range, height, and movement on the map or in text.







IsCatalogInMostPopularTable: catalog: 53322, numindb: 8
Update: records affected: 1



GetName: 53322 YUZGU UA

Hit Count: updated at: Thu, 29 Sep 2022 11:23:40 GMT